Regional Weather Roundup
Issued by NWS

Home | Current Version | Previous Version | Graphics & Text | Print | Product List | Glossary Off
Versions: 1 2 3 4 5 6 7 8 9 10 11 12 13 14 15 16 17 18 19 20 21 22 23 24 25 26 27 28 29 30 31 32 33 34 35 36 37 38 39 40 41 42 43 44 45 46 47 48 49 50

000
ASUS45 KBOU 242307
RWRCO

WEATHER ROUNDUP FOR COLORADO
NATIONAL WEATHER SERVICE DENVER/BOULDER CO
500 PM MDT FRI MAR 24 2017

NOTE: "FAIR" INDICATES FEW OR NO CLOUDS BELOW 12000 FEET WITH NO
SIGNIFICANT WEATHER AND/OR OBSTRUCTIONS TO VISIBILITY.

COZ001>005-013-030-031-250000-
...NORTHWEST COLORADO...

CITY           SKY/WX    TMP DP  RH WIND       PRES   REMARKS
CRAIG          FAIR      55  20  25 W3        30.13S
HAYDEN         FAIR      54  21  28 W7G16     30.14S
MEEKER         FAIR      55  23  28 SW10      30.14F
MOUNT WERNER   NOT AVBL
STEAMBOAT SPGS FAIR      51  23  33 CALM      30.14S
WALDEN         NOT AVBL
$$

COZ006>008-011-250000-
...WEST CENTRAL VALLEYS...

CITY           SKY/WX    TMP DP  RH WIND       PRES   REMARKS
GRAND JUNCTION FAIR      61  27  27 CALM      30.10F
MONTROSE       PTSUNNY   56  27  32 S8        30.15R
EAGLE          MOSUNNY   57  21  24 CALM      30.14S
RIFLE          FAIR      59  26  28 W10G18    30.11S
DELTA          FAIR      64  26  24 SW22G32   30.10F
NUCLA          FAIR      59  27  29 W7G16     30.16F
$$

COZ017>023-064>068-250000-
...SOUTHWEST COLORADO...

CITY           SKY/WX    TMP DP  RH WIND       PRES   REMARKS
DURANGO        FAIR      60  26  27 W23G32    30.04R
CORTEZ         FAIR      60  27  28 NW14G22   30.12F
PAGOSA SPRINGS FAIR      54  32  44 CALM      30.10S
TELLURIDE      FAIR      41  26  54 W10G18    30.23R
WOLF CREEK PAS FAIR      32  18  55 W6        30.30R WCI  26
$$

COZ009-010-012-014-032>034-037-058>063-250000-
...CENTRAL COLORADO...

CITY           SKY/WX    TMP DP  RH WIND       PRES   REMARKS
ASPEN          FAIR      48  24  39 VRB5      30.14F
BUENA VISTA    FAIR      52  14  22 NW18G28   30.11R
COPPER MTN     PTSUNNY   32  23  69 MISG      30.24S
BERTHOUD PASS  CLOUDY    21  10  63 N7        30.24S WCI  13
COTTONWOOD PAS PTSUNNY   50  14  23 CALM      30.18R
GUNNISON       FAIR      49  21  33 NW10      30.15
KREMMLING      FAIR      55  21  26 N7        30.14F
LEADVILLE      FAIR      36  16  44 NW9G16    30.17S
MONARCH PASS   CLOUDY    32  23  69 W21       30.33R WCI  20
SALIDA         CLOUDY    52  23  32 E8        30.18R
SUNLIGHT       FAIR      32  28  86 W5        30.29R WCI  27
WILKERSON PASS CLOUDY    27  23  86 NE8       30.24R FOG     WCI  18
$$

COZ069>075-250000-
...SAN LUIS VALLEY/SANGRE DE CRISTO MOUNTAINS...

CITY           SKY/WX    TMP DP  RH WIND       PRES   REMARKS
ALAMOSA        PTSUNNY   48  30  49 E12       30.09R
LA VETA PASS   NOT AVBL
SAGUACHE       FAIR      54  25  32 NW17G24   30.11R
$$

COZ035-036-038>040-250000-
...NORTHERN COLORADO FRONT RANGE...

CITY           SKY/WX    TMP DP  RH WIND       PRES   REMARKS
DENVER INTL AP FAIR      52  31  44 NE16G23   30.12S
DMNS CITY PARK   N/A     50  29  44 E9G22     30.13S
AURORA         MOSUNNY   50  32  50 NE14      30.14R
FRONT RANGE AP PTSUNNY   50  37  62 N16       30.13F
ERIE MUNI ARPT PTSUNNY   55  22  27 NE12G17   30.11S
BOULDER MUN AP CLOUDY    54  27  35 E6        30.11S
CENTENNIAL     PTSUNNY   47  33  58 E13       30.14R
BROOMFIELD     PTSUNNY   54  25  32 E10       30.14R
FORT COLLINS   FAIR      60  25  26 NE15G24   30.10R
LONGMONT       CLOUDY    58  24  27 NE7       30.12S
$$

COZ041-046-047-076>085-087-088-250000-
...PIKES PEAK/PALMER DIVIDE AND SOUTHERN FOOTHILLS...

CITY           SKY/WX    TMP DP  RH WIND       PRES   REMARKS
COLO. SPRINGS  FAIR      45  30  55 N22       30.16R
A. F. ACADEMY  CLOUDY    42  33  72 N14       30.15S
SCHRIEVER AFB  FAIR      42  32  68 N17G26    30.16R
ELLICOTT         N/A      1  32 100 N25       30.12R WCI -23
FALCON         PTSUNNY   39  31  72 N9G20     30.17R
FORT CARSON    NOT AVBL
LIMON          FAIR      42  37  82 N13       30.12R
MONUMENT HILL  FAIR      36  32  87 N8        30.17S
TRINIDAD       NOT AVBL
$$

COZ042>045-048>051-090-091-250000-
...NORTHEAST COLORADO...

CITY           SKY/WX    TMP DP  RH WIND       PRES   REMARKS
GREELEY ARPT   FAIR      57  24  28 NE16G24   30.11S
AKRON          PTSUNNY   49  33  54 NE15      30.11R
BURLINGTON     CLOUDY    37  36  96 N25G32    30.05S
WRAY           LGT RAIN  41  37  87 N21G36    30.11R
STERLING       PTSUNNY   54  32  43 NE15G21   30.09R
HOLYOKE        FAIR      50  41  71 E12       30.10S
FORT MORGAN    FAIR      54  26  34 NE20G30   30.12R
$$

COZ086-089-092>099-250000-
...SOUTHEAST COLORADO...

CITY           SKY/WX    TMP DP  RH WIND       PRES   REMARKS
PUEBLO         CLOUDY    50  33  52 N18G25    30.15R
LA JUNTA       CLOUDY    45  37  73 N26       30.11R
LAMAR          LGT RAIN  43  35  73 N26G37    30.03R
SPRINGFIELD      N/A     40  36  86 N38G48    30.00R
$$



USA.gov is the U.S. government's official web portal to all federal, state and local government web resources and services.